AirNav   Everest Fuels
 
 1525 users online  

KNRS Imperial Beach Naval Outlying Field (Ream Field)
Imperial Beach, California, USA

GOING TO IMPERIAL BEACH?


FAA INFORMATION EFFECTIVE 10 OCTOBER 2019

Location

FAA Identifier: NRS
Lat/Long: 32-33-58.1638N 117-06-48.6837W
32-33.969397N 117-06.811395W
32.5661566,-117.1135233
(estimated)
Elevation: 23.6 ft. / 7.2 m (surveyed)
Variation: 11E (2020)
From city: 1 mile S of IMPERIAL BEACH, CA
Time zone: UTC -7 (UTC -8 during Standard Time)
Zip code: 91932

Airport Operations

Airport use: Private use. Permission required prior to landing
Activation date: 02/1944
Control tower: yes
ARTCC: LOS ANGELES CENTER
FSS: SAN DIEGO FLIGHT SERVICE STATION
FSS-SAN DIEGO SAN-NOTAM NRS
NOTAMs facility: SAN (NOTAM-D service available)
Attendance: 
OPR 1600-0630Z MON-THU (1500-0600Z DT) AND 1600-0200Z++ FRI. CLSD FR 0200Z++ DAY PRIOR TIL 1600Z++ DAY FLW GOVT HOL; EXC PRE-COORD FLT OF OPR NECESSITY. CTC NOLF ATC DSN 577-9414/9415 FOR OPR INQUIRIES.
Segmented circle: no
Lights: AVBL ONLY DURING HRS OF OPERATION.
Beacon: white-white-green (lighted military airport)
Operates sunset to sunrise.

Airport Communications

ATIS: 276.2
WX ASOS: PHONE 619-437-9890
IMPERIAL BEACH GROUND: 285.575 [1600-0630Z MON-THU (1500-0600Z DT) AND 1600-0200Z++ FRI. CLSD FR 0200Z++ DAY PRIOR TIL 1600Z++ DAY FLW GOVT HOL.]
IMPERIAL BEACH TOWER: 120.65 239.25 [1600-0630Z MON-THU (1500-0600Z DT) AND 1600-0200Z++ FRI. CLSD FR 0200Z++ DAY PRIOR TIL 1600Z++ DAY FLW GOVT HOL.]
SOCAL APPROACH: 125.15
SOCAL DEPARTURE: 125.15
EMERG: 243.0
RADAR: 318.8
WX ASOS at SDM (7 nm E): 132.35 (619-661-8297)
WX ASOS at SAN (11 nm N): PHONE 619-296-8934
WX ASOS at MYF (15 nm N): 126.9 (858-576-4337)
WX AWOS-3P at SEE (17 nm NE): 125.45 (619-449-1228)
  • ATCT/GCA/ATIS OPR PUBLISHED HRS EXC PRE-COORD FLT OF OPR NECESSITY.
  • FOR CLNC DEL WHEN ATCT CLSD CALL SOCAL APCH (800) 448-3724.
  • ILS/RADAR - RADAR - SEE TERMINAL FLIP FOR RADAR MINIMA.

Nearby radio navigation aids

VOR radial/distance  VOR name  Freq  Var
PGYr235/7.3POGGI VORTAC116.4514E
TIJr267/8.2TIJUANA VOR/DME116.5014E
MZBr141/14.1MISSION BAY VORTAC117.8015E

Airport Services

Runway Information

Runway 8/26

Dimensions: 2240 x 151 ft. / 683 x 46 m
Surface: concrete
Weight bearing capacity: 
PCN 6 /R/C/W/T
RUNWAY 8  RUNWAY 26
Latitude: 32-34.018072N32-33.921433N
Longitude: 117-06.827898W117-06.406738W
Elevation: 23.5 ft.21.2 ft.
Traffic pattern: leftleft
Touchdown point: yes, no lightsyes, no lights

Runway 9/27

Dimensions: 4997 x 336 ft. / 1523 x 102 m
Surface: PEM
Weight bearing capacity: 
PCN 8 /F/A/W/T
Runway edge lights: high intensity
RUNWAY 9  RUNWAY 27
Latitude: 32-34.076683N32-33.861790N
Longitude: 117-07.368155W117-06.428677W
Elevation: 8.2 ft.19.8 ft.
Traffic pattern: leftleft
Touchdown point: yes, no lightsyes, no lights

Airport Ownership and Management from official FAA records

Ownership: U.S. Navy
Owner: US NAVY
OCEANOGRAPHIC OFC - CODE 3142
WASHINGTON, DC 20373

Additional Remarks

RSTD - OFFL BUS ONLY - PPR F/W AND NON-TENANT ACFT, CTC NASNI ODO DSN 735-8233/8234, C619-545-8233/8234. NORTH ISLAND TENANT ACFT AND COAST GUARD HAVE PRIORITY FOR LCL PAT OPR.
CAUTION: EXTV COPTER TRNG.
MISC: RWY 08-26 AVBL FOR DAY AND NGT COPTER USE ONLY (NGT AND SVFR USE AT PILOTS OWN RISK).
FUEL: J5 (AVAILABLE 1100-2100 MON-THU; 1000-1800 FRI).

Instrument Procedures

NOTE: All procedures below are presented as PDF files. If you need a reader for these files, you should download the free Adobe Reader.

NOT FOR NAVIGATION. Please procure official charts for flight.
FAA instrument procedures published for use from 10 October 2019 at 0901Z to 17 November 2019 at 0900Z.

 
IAPs - Instrument Approach Procedures
COPTER TACAN RWY 27   download (94KB)
NOTE: Special Take-Off Minimums/Departure Procedures apply   download (174KB)

Other nearby airports with instrument procedures:

KSDM - Brown Field Municipal Airport (7 nm E)
KNZY - North Island Naval Air Station (Halsey Field) (9 nm NW)
KSAN - San Diego International Airport (11 nm N)
KMYF - Montgomery-Gibbs Executive Airport (15 nm N)
KSEE - Gillespie Field Airport (17 nm NE)
KNKX - Miramar MCAS (Joe Foss Field) Airport (18 nm N)
 
Loc | Ops | Rwys | IFR | FBO | Links
Com | Nav | Svcs | Stats | Notes
Area around KNRS (Imperial Beach Naval Outlying Field (Ream Field))
 
Road maps at: MapQuest Bing Google
 
Aerial photo
WARNING: Photo may not be current or correct
Aerial photo of KNRS (Imperial Beach Naval Outlying Field (Ream Field))
Photo taken 02-Feb-2016
looking south.

Do you have a better or more recent aerial photo of Imperial Beach Naval Outlying Field (Ream Field) that you would like to share? If so, please send us your photo.

 
Sectional chart

 
Airport distance calculator
Flying to Imperial Beach Naval Outlying Field (Ream Field)? Find the distance to fly.

From to KNRS

Sunrise and sunset
Times for 16-Oct-2019
 Local
(UTC-7)
 Zulu
(UTC)
Morning civil twilight06:2913:29
Sunrise06:5413:54
Sunset18:1401:14
Evening civil twilight18:3901:39

Current date and time
Zulu (UTC)  16-Oct-2019 15:15:18
Local (UTC-7)  16-Oct-2019 08:15:18
 
METAR
KNRS 161456Z 01006KT 7SM FEW250 19/12 A2994 RMK AO2 SLP139 T01940122 53006 $
KSDM 
6nm E 
161453Z 16005KT 9SM CLR 19/08 A2994 RMK AO2 SLP135 T01890083 53011
MMTJ 
8nm E 
161442Z 17005KT 10SM SKC 19/08 A2997 RMK SLP143 52006 972 HZY
KNZY 
10nm NW 
161452Z 00000KT 8SM FEW010 FEW250 17/15 A2993 RMK AO2 SLP135 T01720150 53010
KSAN 
11nm N 
161451Z 29004KT 8SM FEW008 FEW250 17/15 A2995 RMK AO2 SLP142 T01720150 53011
KMYF 
15nm N 
161453Z 14003KT 10SM CLR 20/09 A2994 RMK AO2 SLP135 T02000089 53009
KSEE 
17nm NE 
161447Z 00000KT 10SM SKC 16/11 A2995
KNKX 
18nm N 
161355Z 10005KT 7SM CLR 16/09 A2992 RMK AO2 SLP127 T01560089
TAF
MMTJ 
8nm E 
161052Z 1612/1718 00000KT 5SM HZ SKC TX25/1621Z TN14/1612Z TEMPO 1612/1615 2SM BR BKN010 FM161800 30010KT P6SM SKC FM170300 33005KT 6SM HZ SKC FM170800 00000KT 5SM HZ BKN010 TEMPO 1710/1714 1SM BR BKN005 OVC010
KNZY 
10nm NW 
1523/1623 31012KT 9999 FEW015 522609 523505 QNH2984INS FM160300 VRB06KT 9999 FEW015 FEW250 500000 QNH2986INS FM161900 30011KT 9999 FEW015 FEW250 QNH2982INS T14/1613Z T24/1621Z COR 0240 FS30022
KSAN 
11nm N 
161120Z 1612/1718 VRB03KT 6SM BR FEW008 FM161500 VRB04KT P6SM SKC FM161900 29010KT P6SM SCT250 FM170300 VRB04KT P6SM SCT008 BKN250 FM170700 VRB04KT 6SM BR BKN008 FM171400 VRB04KT P6SM BKN012
KNKX 
18nm N 
1609/1709 VRB05KT 9999 SKC QNH2979INS TEMPO 1619/1701 27007KT T11/1613Z T29/1621Z
NOTAMs
Click for the latest NOTAMs
NOTAMs are issued by the DoD/FAA and will open in a separate window not controlled by AirNav.

 

 
 

Would you like to see your business listed on this page?

 If your business provides an interesting product or service to pilots, flight crews, aircraft, or users of the Imperial Beach Naval Outlying Field (Ream Field), you should consider listing it here.  To start the listing process, click on the button below
 
Add a business
 

Other Pages about Imperial Beach Naval Outlying Field (Ream Field)

Update a link
 
Copyright © AirNav, LLC. All rights reserved. Privacy Policy  Contact